Location: Hohe Wand Kleine Kanzel
(47.8330°N, 16.0170°E)
Time: 23:24:39
(UTC+02:00)

NOAA 19 - Visible Passes

Search period start: 19 September 2021 00:00
Search period end: 29 September 2021 00:00
Orbit: 841 x 860 km, 99.2° (Epoch: 19 September)

Date Brightness Start Highest point End Pass type
(mag) Time Alt. Az. Time Alt. Az. Time Alt. Az.
19 Sep 7.4 20:27:20 10° SSW 20:31:57 26° W 20:36:35 10° NW visible
20 Sep 7.1 20:15:06 10° SSW 20:20:03 33° W 20:25:01 10° NNW visible
21 Sep 6.7 20:02:58 10° SSW 20:08:10 40° W 20:13:23 10° NNW visible
22 Sep 6.2 19:50:55 10° S 19:56:18 50° W 20:01:43 10° NNW visible
23 Sep 5.8 19:38:58 10° S 19:44:28 63° WSW 19:50:00 10° NNW visible
24 Sep 5.5 19:27:05 10° SSE 19:32:39 78° WSW 19:38:14 10° NNW visible
24 Sep 8.2 21:12:05 10° WSW 21:14:12 12° W 21:16:20 10° WNW visible
25 Sep 5.3 19:15:17 10° SSE 19:20:51 86° ENE 19:26:27 10° NNW visible
25 Sep 8.0 20:59:00 10° SW 21:02:13 16° W 21:05:27 10° NW visible
26 Sep 7.8 20:46:20 10° SW 20:50:16 19° W 20:54:12 10° NW visible
27 Sep 7.5 20:33:54 10° SW 20:38:19 24° W 20:42:47 10° NW visible
28 Sep 7.2 20:21:36 10° SSW 20:26:25 30° W 20:31:15 10° NW visible
